Faribault, MN

5:40 AM CST on December 11, 2017 (GMT -0600)
Faribault Municipal

Weather History for KFBL - April, 2014

Change the Weather History Date:

Sunday, April 13, 2014

  Actual Average Record
Temperature  
Mean Temperature 42 °F -  
Max Temperature 48 °F 54 °F 84 °F (2006)
Min Temperature 35 °F 33 °F 14 °F (1962)
Degree Days  
Heating Degree Days 24    
Moisture  
Dew Point 35 °F    
Average Humidity 71    
Maximum Humidity 81    
Minimum Humidity 56    
Precipitation  
Precipitation 0.06 in - - ()
Sea Level Pressure  
Sea Level Pressure 29.81 in    
Wind  
Wind Speed 10 mph (North)    
Max Wind Speed 18 mph    
Max Gust Speed 25 mph    
Visibility 8 miles    
Events Rain , Snow    
Averages and records for this station are not official NWS values.
T = Trace of Precipitation, MM = Missing Value Source: NWS Daily Summary

Daily Weather History Graph

Daily Weather History Graph

Search for Another Location

Airport or City:

Trip Planner

Search our weather history database for the weather conditions in past years. The results will help you decide how hot, cold, wet, or windy it might be!

Date:

Astronomy

Apr. 13, 2014 Rise Set
Actual Time 6:32 AM CDT 7:55 PM CDT
Civil Twilight 6:02 AM CDT 8:25 PM CDT
Nautical Twilight 5:26 AM CDT 9:01 PM CDT
Astronomical Twilight 4:48 AM CDT 9:40 PM CDT
Moon 6:31 PM CDT (4/13) 5:35 AM CDT (4/13)
Length of Visible Light 14h 22m
Length of Day
13h 22m
Waxing Gibbous, 97% of the Moon is Illuminated
Apr 13
Waxing Gibbous
Apr 15
Full
Apr 22
Last Quarter
Apr 29
New
May 6
First Quarter

Hourly Weather History & Observations

Time (CDT) Temp. Windchill Dew Point Humidity Pressure Visibility Wind Dir Wind Speed Gust Speed Precip Events Conditions
12:14 AM 48.2 °F - 41.0 °F 76% 29.73 in 7.0 mi North 8.1 mph - N/A   Overcast
12:34 AM 48.2 °F - 41.0 °F 76% 29.74 in 7.0 mi NE 8.1 mph - N/A   Overcast
12:54 AM 48.2 °F - 39.2 °F 71% 29.74 in 7.0 mi North 9.2 mph - N/A   Overcast
1:14 AM 46.4 °F 42.4 °F 39.2 °F 76% 29.73 in 7.0 mi North 8.1 mph - N/A   Overcast
1:34 AM 46.4 °F 41.9 °F 39.2 °F 76% 29.73 in 7.0 mi North 9.2 mph - N/A   Overcast
1:54 AM 46.4 °F 42.4 °F 39.2 °F 76% 29.74 in 7.0 mi North 8.1 mph - N/A   Overcast
2:14 AM 46.4 °F 41.9 °F 39.2 °F 76% 29.75 in 7.0 mi North 9.2 mph - N/A   Overcast
2:34 AM 46.4 °F 42.4 °F 39.2 °F 76% 29.75 in 7.0 mi North 8.1 mph - N/A   Overcast
2:54 AM 46.4 °F 43.5 °F 39.2 °F 76% 29.76 in 7.0 mi North 5.8 mph - N/A   Overcast
3:14 AM 46.4 °F 42.9 °F 39.2 °F 76% 29.77 in 7.0 mi NNE 6.9 mph - N/A   Overcast
3:34 AM 46.4 °F 43.5 °F 39.2 °F 76% 29.78 in 7.0 mi North 5.8 mph - N/A   Overcast
3:54 AM 46.4 °F 42.9 °F 39.2 °F 76% 29.79 in 7.0 mi North 6.9 mph - N/A   Overcast
4:14 AM 46.4 °F 41.9 °F 39.2 °F 76% 29.79 in 5.0 mi North 9.2 mph - N/A   Haze
4:34 AM 46.4 °F 42.4 °F 39.2 °F 76% 29.78 in 4.0 mi North 8.1 mph - N/A   Haze
4:54 AM 46.4 °F 41.1 °F 39.2 °F 76% 29.78 in 4.0 mi North 11.5 mph - N/A   Haze
5:15 AM 46.4 °F 41.5 °F 39.2 °F 76% 29.78 in 4.0 mi North 10.4 mph - N/A   Haze
5:34 AM 46.4 °F 41.5 °F 39.2 °F 76% 29.77 in 3.0 mi North 10.4 mph - N/A   Haze
5:54 AM 46.4 °F 41.5 °F 39.2 °F 76% 29.76 in 3.0 mi North 10.4 mph - N/A   Haze
6:14 AM 46.4 °F 41.1 °F 39.2 °F 76% 29.77 in 4.0 mi North 11.5 mph 17.3 mph N/A   Haze
6:34 AM 46.4 °F 41.1 °F 39.2 °F 76% 29.79 in 5.0 mi North 11.5 mph - N/A   Haze
6:54 AM 44.6 °F 40.7 °F 39.2 °F 81% 29.80 in 5.0 mi North 6.9 mph - N/A   Haze
7:14 AM 46.4 °F 41.9 °F 39.2 °F 76% 29.81 in 7.0 mi North 9.2 mph - N/A   Overcast
7:34 AM 46.4 °F 43.5 °F 39.2 °F 76% 29.83 in 5.0 mi NNW 5.8 mph - N/A   Haze
8:14 AM 46.4 °F 41.5 °F 39.2 °F 76% 29.82 in 10.0 mi NNW 10.4 mph - N/A   Overcast
8:34 AM 46.4 °F 41.1 °F 37.4 °F 71% 29.82 in 10.0 mi NNW 11.5 mph - N/A   Mostly Cloudy
8:54 AM 46.4 °F 40.4 °F 39.2 °F 76% 29.81 in 10.0 mi North 13.8 mph 19.6 mph N/A   Mostly Cloudy
9:14 AM 46.4 °F 40.1 °F 39.2 °F 76% 29.81 in 10.0 mi NNW 15.0 mph 21.9 mph N/A   Overcast
9:35 AM 46.4 °F 39.5 °F 39.2 °F 76% 29.79 in 10.0 mi NNW 17.3 mph 25.3 mph N/A   Overcast
9:54 AM 46.4 °F 39.2 °F 37.4 °F 71% 29.77 in 7.0 mi NNW 18.4 mph 24.2 mph N/A   Overcast
10:34 AM 46.4 °F 40.1 °F 37.4 °F 71% 29.80 in 10.0 mi NNW 15.0 mph 23.0 mph N/A   Overcast
10:54 AM 46.4 °F 41.1 °F 37.4 °F 71% 29.85 in 10.0 mi NNW 11.5 mph 20.7 mph N/A   Overcast
11:14 AM 46.4 °F 41.9 °F 37.4 °F 71% 29.86 in 10.0 mi North 9.2 mph - N/A   Overcast
11:34 AM 46.4 °F 41.9 °F 37.4 °F 71% 29.86 in 10.0 mi NNW 9.2 mph - N/A   Overcast
11:54 AM 46.4 °F 42.9 °F 35.6 °F 66% 29.86 in 10.0 mi North 6.9 mph - N/A   Overcast
12:13 PM 46.4 °F 41.5 °F 35.6 °F 66% 29.85 in 10.0 mi North 10.4 mph - N/A   Overcast
12:34 PM 46.4 °F 42.9 °F 35.6 °F 66% 29.85 in 10.0 mi North 6.9 mph - N/A   Overcast
12:54 PM 46.4 °F 41.1 °F 35.6 °F 66% 29.85 in 10.0 mi North 11.5 mph - N/A   Overcast
1:14 PM 46.4 °F 41.5 °F 35.6 °F 66% 29.86 in 10.0 mi North 10.4 mph 16.1 mph N/A   Overcast
1:34 PM 46.4 °F 41.1 °F 35.6 °F 66% 29.86 in 10.0 mi NNW 11.5 mph - N/A   Overcast
1:54 PM 46.4 °F 41.5 °F 35.6 °F 66% 29.86 in 10.0 mi NNW 10.4 mph - N/A   Overcast
2:14 PM 44.6 °F 37.8 °F 33.8 °F 66% 29.86 in 10.0 mi NNW 15.0 mph 23.0 mph N/A   Overcast
2:34 PM 44.6 °F 38.1 °F 33.8 °F 66% 29.85 in 10.0 mi NNW 13.8 mph 17.3 mph N/A   Mostly Cloudy
2:54 PM 42.8 °F 35.4 °F 32.0 °F 66% 29.85 in 10.0 mi NNW 15.0 mph 20.7 mph N/A   Mostly Cloudy
3:14 PM 42.8 °F 35.4 °F 33.8 °F 70% 29.83 in 10.0 mi North 15.0 mph 19.6 mph N/A Rain Rain
3:34 PM 42.8 °F 35.4 °F 33.8 °F 70% 29.82 in 10.0 mi North 15.0 mph 19.6 mph N/A Rain Light Rain
3:54 PM 42.8 °F 35.4 °F 33.8 °F 70% 29.82 in 10.0 mi North 15.0 mph 21.9 mph N/A Rain Light Rain
4:14 PM 41.0 °F 33.1 °F 32.0 °F 70% 29.82 in 10.0 mi North 15.0 mph 20.7 mph N/A   Light Drizzle
4:34 PM 39.2 °F 30.8 °F 32.0 °F 75% 29.82 in 10.0 mi North 15.0 mph 19.6 mph N/A Rain Light Rain
4:54 PM 39.2 °F 31.6 °F 32.0 °F 75% 29.82 in 10.0 mi NNW 12.7 mph - N/A Rain Light Rain
5:14 PM 39.2 °F 31.2 °F 32.0 °F 75% 29.83 in 10.0 mi North 13.8 mph 19.6 mph N/A Rain Light Rain
5:34 PM 37.4 °F 28.9 °F 30.2 °F 75% 29.82 in 7.0 mi North 13.8 mph 19.6 mph 0.01 in Rain Light Rain
5:54 PM 37.4 °F 31.4 °F 30.2 °F 75% 29.83 in 4.0 mi North 8.1 mph - 0.03 in Snow Light Snow
6:14 PM 37.4 °F 30.3 °F 30.2 °F 75% 29.83 in 3.0 mi NNW 10.4 mph 16.1 mph 0.01 in Snow Light Snow
6:34 PM 35.6 °F 29.2 °F 30.2 °F 81% 29.83 in 4.0 mi North 8.1 mph - 0.03 in Snow Light Snow
7:14 PM 39.2 °F 31.6 °F 32.0 °F 75% 29.83 in 10.0 mi North 12.7 mph 17.3 mph N/A   Overcast
7:34 PM 37.4 °F 27.5 °F 32.0 °F 81% 29.82 in 10.0 mi North 18.4 mph 24.2 mph N/A   Overcast
7:54 PM 37.4 °F 28.5 °F 30.2 °F 75% 29.82 in 10.0 mi North 15.0 mph 25.3 mph N/A   Overcast
8:14 PM 37.4 °F 29.3 °F 30.2 °F 75% 29.83 in 10.0 mi North 12.7 mph 24.2 mph N/A   Overcast
8:34 PM 39.2 °F 30.8 °F 28.4 °F 65% 29.82 in 10.0 mi North 15.0 mph 21.9 mph N/A   Overcast
8:54 PM 39.2 °F 30.8 °F 26.6 °F 61% 29.83 in 10.0 mi North 15.0 mph 25.3 mph N/A   Overcast
9:14 PM 39.2 °F 31.2 °F 26.6 °F 61% 29.84 in 10.0 mi North 13.8 mph 23.0 mph N/A   Overcast
9:34 PM 39.2 °F 30.2 °F 26.6 °F 61% 29.85 in 10.0 mi North 17.3 mph 25.3 mph N/A   Overcast
9:54 PM 39.2 °F 30.2 °F 24.8 °F 56% 29.85 in 10.0 mi North 17.3 mph 23.0 mph N/A   Overcast
10:14 PM 39.2 °F 30.5 °F 24.8 °F 56% 29.85 in 10.0 mi North 16.1 mph 23.0 mph N/A   Mostly Cloudy
10:34 PM 37.4 °F 28.5 °F 24.8 °F 60% 29.85 in 10.0 mi NNW 15.0 mph 21.9 mph N/A   Mostly Cloudy
10:54 PM 37.4 °F 27.8 °F 23.0 °F 56% 29.86 in 10.0 mi North 17.3 mph 23.0 mph N/A   Mostly Cloudy
11:14 PM 37.4 °F 29.3 °F 23.0 °F 56% 29.87 in 10.0 mi NNW 12.7 mph 23.0 mph N/A   Overcast
11:34 PM 37.4 °F 27.8 °F 23.0 °F 56% 29.87 in 10.0 mi NNW 17.3 mph 23.0 mph N/A   Overcast
11:54 PM 37.4 °F 28.9 °F 23.0 °F 56% 29.87 in 10.0 mi NNW 13.8 mph 21.9 mph N/A   Overcast